Home > Weather > Apolda > Past weeks

Flag for Germany Past Weather in Apolda, Thuringia, Germany — Yesterday and Last 2 Weeks

Now
66 °F

Passing clouds.


Feels Like: 66 °F
Forecast: 48 / 71 °F
Wind: 7 mph from North

Location: Erfurt-Bindersleben

Current Time: May 26, 2016 at 4:47:00 PM

Latest Report: May 26, 2016 at 4:20 PM


Visibility: N/A

Pressure: 30.04 "Hg

Humidity: 52%

Dew Point: 48 °F

Location of ApoldaLocation

Past Weather in Apolda — Graph

°F

Apolda Temperature Yesterday

Maximum temperature yesterday: 57 °F (at 2:50 PM)
Minimum temperature yesterday: 50 °F (at 12:20 AM)
Average temperature yesterday: 53 °F

High & Low Weather Summary for the Past Weeks

 TemperatureHumidityPressure
High82 °F (May 22, 2:20 PM)94% (May 13, 4:50 AM)30.09 "Hg (May 13, 4:50 AM)
Low36 °F (May 15, 3:20 AM)25% (May 22, 2:50 PM)29.50 "Hg (May 12, 4:50 PM)
Average55 °F69%29.88 "Hg
* Reported May 11 3:20 PM — May 26 3:20 PM, Apolda, Weather by CustomWeather, © 2016

Note: Actual official high and low records may vary slightly from our data, if they occured in-between our weather recording intervals... More about our weather records

Advertising

Apolda Weather History for the Previous 24 Hours

Scroll right to see more
 ConditionsComfort  
Time TempWeatherWind HumidityBarometerVisibility
3:20 PM
Thu, May 26
64 °FScattered clouds.7 mph56%30.04 "HgN/A
2:50 PM66 °FScattered clouds.5 mph52%30.04 "HgN/A
2:20 PM64 °FScattered clouds.3 mph56%30.04 "HgN/A
1:50 PM64 °FScattered clouds.7 mph60%30.04 "HgN/A
1:20 PM64 °FPartly sunny.6 mph56%30.04 "HgN/A
12:50 PM63 °FPartly sunny.2 mph59%30.04 "HgN/A
12:20 PM63 °FPartly sunny.5 mph52%30.04 "HgN/A
11:50 AM61 °FBroken clouds.6 mph68%30.04 "HgN/A
11:20 AM61 °FCool.3 mph68%30.04 "HgN/A
10:50 AM61 °FBroken clouds.5 mph72%30.04 "HgN/A
10:20 AM59 °FBroken clouds.5 mph68%30.04 "HgN/A
9:50 AM59 °FPartly sunny.3 mph77%30.04 "HgN/A
9:20 AM57 °FPartly sunny.6 mph77%30.04 "HgN/A
8:50 AM57 °FPartly sunny.3 mph77%30.04 "HgN/A
8:20 AM55 °FPartly sunny.3 mph88%30.04 "HgN/A
7:50 AM55 °FPartly sunny.3 mph88%30.04 "HgN/A
7:20 AM55 °FPartly sunny.3 mph82%30.04 "HgN/A
6:50 AM54 °FPartly sunny.No wind94%30.01 "HgN/A
6:20 AM54 °FPartly sunny.No wind88%30.01 "HgN/A
5:50 AM54 °FPartly cloudy.No wind88%30.01 "HgN/A
5:20 AM54 °FPartly cloudy.No wind88%30.01 "HgN/A
4:50 AM54 °FPassing clouds.No wind88%30.01 "HgN/A
4:20 AM54 °FPassing clouds.No wind88%30.01 "HgN/A
3:50 AM54 °FPassing clouds.No wind88%30.01 "HgN/A
3:20 AM54 °FPassing clouds.No wind94%30.01 "HgN/A
2:50 AM54 °FPassing clouds.No wind94%30.01 "HgN/A
2:20 AM54 °FOvercast.No wind88%30.01 "HgN/A
1:50 AM54 °FPassing clouds.No wind88%30.01 "HgN/A
1:20 AM54 °FPassing clouds.No wind88%30.01 "HgN/A
12:50 AM54 °FPassing clouds.No wind88%30.01 "HgN/A
12:20 AM54 °FPartly cloudy.No wind88%30.01 "HgN/A
11:50 PM
Wed, May 25
54 °FPartly cloudy.1 mph88%30.01 "HgN/A
11:20 PM54 °FPassing clouds.3 mph94%30.01 "HgN/A
10:50 PM55 °FPassing clouds.5 mph82%30.01 "HgN/A
10:20 PM55 °FPassing clouds.2 mph82%30.01 "HgN/A
9:50 PM55 °FPartly sunny.2 mph88%30.01 "HgN/A
9:20 PM55 °FPartly sunny.1 mph88%30.01 "HgN/A
8:50 PM55 °FPartly sunny.No wind88%29.98 "HgN/A
8:20 PM55 °FBroken clouds.3 mph88%29.98 "HgN/A
7:50 PM55 °FPartly sunny.3 mph82%29.98 "HgN/A
7:20 PM57 °FPartly sunny.3 mph77%29.98 "HgN/A
6:50 PM57 °FBroken clouds.6 mph82%29.98 "HgN/A
6:20 PM57 °FPartly sunny.5 mph77%29.98 "HgN/A
5:50 PM57 °FBroken clouds.6 mph82%29.98 "HgN/A
5:20 PM57 °FPartly sunny.6 mph82%29.98 "HgN/A
4:50 PM57 °FPartly sunny.6 mph82%29.98 "HgN/A
4:20 PM57 °FPartly sunny.3 mph77%29.98 "HgN/A
Weather by CustomWeather, © 2016

See weather overviewHow to use our weather pages